Regional Weather Roundup
Issued by NWS Wakefield, VA

Home | Current Version | Previous Version | Graphics & Text | Print | Product List | Glossary On
Versions: 1 2 3 4 5 6 7 8 9 10 11 12 13 14 15 16 17 18 19 20 21 22 23 24 25 26 27 28 29 30 31 32 33 34 35 36 37 38 39 40 41 42 43 44 45 46 47 48 49 50
000
ASUS41 KAKQ 251810
RWRAKQ

REGIONAL WEATHER ROUNDUP
NATIONAL WEATHER SERVICE WAKEFIELD VA
200 PM EDT FRI JUL 25 2014

Note: "fair" indicates few or no clouds below 12,000 feet with no
significant weather and/or obstructions to visibility. * = Denotes
station may not report precipitation (e.g., rain,snow,etc.),
thunder or fog.

VAZ042-051-052>054-056-251900-
NORTHERN VIRGINIA

CITY           SKY/WX    TMP DP  RH WIND       PRES   REMARKS
WASH NATIONAL  MOSUNNY   82  52  35 NW9G21    30.04F
DULLES         MOSUNNY   80  51  36 W7        30.04F
FORT BELVOIR   SUNNY     81  55  40 VRB3      30.03F
QUANTICO       SUNNY     80  54  40 NW8       30.04F
FREDERICKSBRG* SUNNY     81  58  45 W5        30.03F
STAFFORD*      SUNNY     79  56  44 N5        30.08F
WARRENTON      SUNNY     82  64  55 N5        30.05F
CULPEPER*      MOSUNNY  N/A N/A N/A NW5       30.05F
MANASSAS*      SUNNY     79  55  44 CALM      30.04F
LEESBURG*      SUNNY     79  59  50 N5        30.05F
WINCHESTER     SUNNY     79  54  41 CALM      30.04F
$$

VAZ048-049-060>072-079>083-251900-
CENTRAL AND SOUTH CENTRAL VIRGINIA...AND NORTH CENTRAL NORTH CAROLINA

CITY           SKY/WX    TMP DP  RH WIND       PRES   REMARKS
RICHMOND       MOSUNNY   83  55  38 CALM      30.04F
CHESTERFIELD*  MOCLDY    81  55  41 NE9       30.06F
HANOVER        MOSUNNY   80  57  45 VRB3      30.06F
TAPPAHANNOCK*  SUNNY     81  51  35 N7        30.05F
CHARLOTTSVILLE SUNNY     78  60  53 S3        30.05F
ORANGE*        MOSUNNY   79  59  50 CALM      30.07F
LOUISA*        MOSUNNY   79  59  50 CALM      30.05F
FARMVILLE*     CLOUDY    79  57  47 CALM      30.05S
SOUTH HILL*    SUNNY     82  61  47 SE5       30.10F
ROANOKE RAPIDS PTCLDY    82  63  51 SE5       30.04F
RALEIGH        PTSUNNY   79  63  57 E5        30.05F
$$

VAZ088>098-251900-
SOUTHEAST VIRGINIA

CITY           SKY/WX    TMP DP  RH WIND       PRES   REMARKS
NORFOLK        SUNNY     79  57  46 NE9       30.05F
VIRGINIA BEACH MOSUNNY   80  56  43 VRB6      30.04F
NORFOLK NAVAL  MOSUNNY   81  59  47 NE8       30.05F
WEST POINT*    SUNNY     83  55  38 NW6       30.06F
NEWPORT NEWS   SUNNY     84  58  40 VRB5      30.04F
LANGLEY AFB    SUNNY     80  59  49 SE5       30.03F
FORT EUSTIS    SUNNY     80  63  55 NW7       30.02F
WILLIAMSBURG*  SUNNY     84  61  45 CALM      30.05F
FRANKLIN*      SUNNY     81  61  50 N6        30.04F
WAKEFIELD      SUNNY     83  60  45 CALM      30.04F
$$

VAZ020-022-025-037-045-251900-
WESTERN AND SOUTHWEST VIRGINIA

CITY           SKY/WX    TMP DP  RH WIND       PRES   REMARKS
STAUNTON*      MOSUNNY   77  58  53 NE6       30.08F
HOT SPRINGS VA CLOUDY    65  55  67 S5        30.18F
LYNCHBURG      PTSUNNY   77  62  59 SE6       30.08F
DANVILLE       PTSUNNY   79  63  57 SE5       30.06F
MARTINSVILLE   PTSUNNY   83  63  51 SE5       30.08F
ROANOKE        MOSUNNY   77  61  57 SE9       30.08F
BLACKSBURG     MOSUNNY   79  63  57 NW6         N/A
DUBLIN*        MOSUNNY   79  61  53 CALM      30.10S
MARION*        SUNNY    N/A N/A N/A W7G18     30.13S
HILLSVILLE*    PTSUNNY   75  61  61 SW5       30.11F
RICHLANDS*     CLEAR     75  63  67 NW3       30.13R
WISE*          CLOUDY    70  59  68 NE6       30.14S
ABINGDON*      PTSUNNY   78  61  55 W7        30.09S
$$

MDZ021>025-VAZ099-100-251900-
SOUTHERN MARYLAND AND THE DELMARVA PENINSULA

CITY           SKY/WX    TMP DP  RH WIND       PRES   REMARKS
PATUXENT RIVER MOSUNNY   77  58  51 NE8       30.03F
BAY BRIDGE APT   N/A     77  46  33 N8        30.03F
LEONARDTOWN    SUNNY     79  54  41 NW5       30.04F
DOVER          MOSUNNY   77  59  53 VRB1      30.01S
GEORGETOWN     SUNNY     80  53  39 VRB7      30.03F
EASTON         SUNNY     81  52  36 N9        30.07F
CAMBRIDGE      SUNNY     79  50  36 N7        30.03F
SALISBURY      NOT AVBL
OCEAN CITY     SUNNY     76  65  68 E8        30.02S
WALLOPS ISLAND MOSUNNY   82  52  35 NW9       30.02F
ACCOMACK*        N/A     77  55  47 NW9G18    30.03F
$$

NCZ012>017-030>032-251900-
EASTERN NORTH CAROLINA

CITY           SKY/WX    TMP DP  RH WIND       PRES   REMARKS
ELIZABETH CITY MOSUNNY   82  63  52 N8        30.04F
AHOSKIE*       SUNNY     81  62  53 N7        30.04F
EDENTON*       PTSUNNY   81  66  60 NE6       30.04F
CURRITUCK*     SUNNY     83  56  38 N10       30.05F
KILL DEVIL HLS SUNNY     78  64  63 N7        30.04S
MANTEO         NOT AVBL
CAPE HATTERAS  SUNNY     82  70  66 NE8       30.04S
GOLDSBORO      PTSUNNY   82  71  70 SE7       30.02F
WASHINGTON     SUNNY     79  67  67 NE6       30.05S
GREENVILLE     CLOUDY    81  66  61 NE5       30.06S
NEW BERN       PTSUNNY   83  69  62 VRB3      30.05S
WILMINGTON     PTSUNNY   80  72  76 VRB6      30.04S
$$

VAZ048-251900-
ELSEWHERE

CITY           SKY/WX    TMP DP  RH WIND       PRES   REMARKS
HARRISBURG PA  MOSUNNY   78  48  34 W8        30.02F
BALTIMORE      MOSUNNY   80  51  36 NW8       30.02F
ANNAPOLIS      SUNNY     78  53  41 NW9       30.02F
ANDREWS AFB    SUNNY     80  53  40 VRB5      30.03F
WILMINGTON DE  SUNNY     81  54  39 CALM      30.03S
PHILADELPHIA   MOSUNNY   80  53  39 S8        30.01S
WILDWOOD NJ*   SUNNY     77  57  50 W8        30.03F
ATLANTIC CITY  PTSUNNY   76  63  64 SE10      30.01R
HENDERSON NC   PTSUNNY   81  59  47 CALM      30.06F
GREENSBORO     PTSUNNY   78  65  63 CALM      30.06F
ROCKY MOUNT    SUNNY     84  65  52 NE7       30.04F
FAYETTEVILLE   MOSUNNY   84  69  60 E9        30.03F
CHARLOTTE      PTSUNNY   81  65  58 E6        30.04F
$$

VAZ100-251900-
MARINE

STATION/POSITION TIME  TEMP    WIND        PRES    WAVE   SWELL
                       AIR SEA DIR/SP/G            HT/PER HT/PER
                 (UTC) (F)     (DEG/KT/KT) (MB)    (FT/S) (FT/S)
44066 TX TWR #4  1800   72 74   40/  8/ 10 1015.6F   3/ 8   2/ 8
CAPE MAY NJ      1800   73 78  290/  6/  8 1016.2F
LEWES DE         1800   72 73   30/  6/  7 1016.5S
15NM E FENWICK I 1800   71 76              1016.8F   2/ 7
OCEAN-CITY-INLET 1800   72 72   80/  7/ 11 1016.1F
WACHAPREAGUE VA  1800   79 80  310/  5/ 10 1017.1R
THOMAS POINT MD  1800   76 79   30/  8/  9 1017.2F
GOOSES REEF MD   1800   74      60/  6/  8 1017.7F
COVE POINT MD    1800   73      20/  4/  7 1017.0F
SOLOMONS ISLAND  1800      81                N/A
BISHOPS HEAD MD  1800   76 78  310/ 10/ 17 1016.5F
PINEY POINT MD   1800          290/  7/  9   N/A
POTOMAC MD       1800   75      40/  6/ 10 1016.6F
CAMBRIDGE MD     1800   74 80  300/  9/ 12 1016.9F
LEWISETTA VA     1800   77 78   20/  7/  9 1016.9F
RAPPAHANNOCK LGT 1800           10/  9/ 11 1017.8F
STINGRAY PT      1800   76      40/ 10/ 12 1017.8F
YORK RVR RNG VA  1800   77      90/  3/  5 1016.9F
YORKTOWN VA      1800   78 81  290/  4/  5 1017.0F
JAMESTOWN VA     1800   77     280/  2/  4   N/A
DOMINION TERM VA 1800   78     280/  5/  6 1017.7S
KIPTOPEKE VA     1800      81  340/ 12/ 14   N/A
CHES BAY BRIDGE  1800   75 78  360/  8/ 11 1017.1S
CAPE HENRY VA    1800   76     350/ 11/ 12 1016.5F
WILLOUBY STN VA  1800           70/ 10/ 11 1016.6F
S CRANEY ISL VA  1800           10/  5/  6 1017.4F
CAPE HENRY BUOY  1800      77                N/A     2/ 4
1ST LANDING BUOY 1800   76      10/ 10/ 14 1017.3F
CAPE CHARLES BUO 1800      75                N/A     2/ 4
OFFSHORE WE BUOY 1800      78                N/A     3/ 5
64NM E OF VA BCH 1800   75 78  350/ 14/ 16 1016.7R   3/ 4   2/ 8
DUCK PIER NC     1800   75 75   10/ 15/ 16 1016.6F
44056 DUCK FRF   1800                        N/A     2/ 4
OREGON INLET NC  1800   78 77   10/ 10/ 15 1017.4S
HATTERAS NC      1800   78 79   20/  9/ 12 1017.6S
DIAMOND SHLS NC  1800          VRB  8/  8  1017.1S   2/ 7   2/ 7
CAPE LOOKOUT NC  1700   77      50/ 10/ 11 1017.3F
$$


USA.gov is the U.S. government's official web portal to all federal, state and local government web resources and services.